BEIDOU-3 M15 (C34)

Last updated on Sun Jun 21 2026 00:03:32 GMT+0000 (Coordinated Universal Time)

1 43648U 18078B 26171.37062705 -.00000091 00000+0 00000+0 0 9995 2 43648 54.0825 299.8748 0004076 58.0000 302.0369 1.86232388 52234
UTC large
Height (km)
Speed (km/s)
/
Latitude / Longitude
Inclination (degrees)
Orbital Period (minutes)
Azimuth
Elevation
Range (km)
Doppler Factor

Next 0 passes for location: London (51.5072 / 0.1276)

No passes found over London.
BEIDOU-3 M15 (C34)